Theta_e
323 326 326 325 324 324 323 323 323 322 321 324 324 323 322 320 320 321 320 321 322 322 323 325 325 325 324 324 327 331 332 331 329 329 328 327 328 327 327 326 325 327 326 324
323 325 321 322 323 324 325 324 323 321 321 322 320 320 319 319 319 319 320 320 320 320 320 322 324 324 325 323 324 329 332 332 331 329 328 328 327 327 327 327 325 326 327 326
321 319 320 320 322 324 324 324 324 322 319 320 319 320 318 318 318 318 319 319 319 320 320 320 321 323 323 325 322 326 329 332 332 330 329 329 328 328 326 325 324 323 326 327
320 318 319 319 320 320 323 318 319 321 322 321 318 320 318 317 316 316 316 315 316 317 319 319 319 321 322 323 324 324 328 330 331 331 330 329 329 328 327 325 324 324 323 327
320 319 321 321 320 319 320 319 320 321 320 319 319 321 317 316 316 316 316 315 315 315 315 317 317 321 323 324 323 324 325 329 330 331 331 330 329 329 328 327 326 325 325 325
318 317 318 320 318 319 319 321 320 321 322 324 320 319 317 315 316 320 318 317 319 319 318 319 320 320 320 321 323 325 324 327 330 331 331 331 330 330 329 328 327 327 326 327
316 317 317 318 319 320 321 321 319 323 322 321 317 319 317 317 318 318 318 318 318 318 318 316 310 310 311 312 315 322 325 325 328 331 331 331 331 331 330 329 328 327 327 326
317 316 317 317 319 320 320 320 320 321 323 320 316 322 320 319 318 319 320 319 318 313 309 308 309 310 310 310 310 314 319 324 325 329 331 331 331 331 331 330 329 328 327 326
314 315 312 315 316 316 319 321 317 321 316 322 322 321 319 318 319 318 318 318 315 314 312 312 312 311 311 311 310 309 311 319 322 324 328 330 331 331 330 330 330 329 328 327
313 313 312 312 314 315 316 317 321 320 321 317 314 313 315 318 319 318 317 316 312 311 313 313 312 313 314 313 312 311 310 309 315 319 322 325 330 331 331 330 330 329 329 328
314 317 314 312 315 317 317 320 319 318 317 319 318 315 314 313 316 315 314 313 311 313 312 313 312 314 314 315 314 313 311 309 308 312 317 319 324 330 331 330 330 329 329 329
314 316 320 316 315 313 315 316 319 318 319 317 318 319 313 312 315 314 313 314 314 315 313 312 312 314 315 315 315 315 314 310 307 306 310 314 319 324 329 330 329 329 329 329
314 316 312 316 317 316 318 317 315 315 317 316 316 316 312 313 310 313 314 316 314 315 313 312 311 311 313 314 314 314 314 312 308 307 306 309 314 322 324 327 328 329 329 329
314 314 312 312 314 315 317 317 317 317 318 317 317 316 314 312 313 313 313 314 315 314 312 311 310 309 309 308 311 313 312 311 308 306 304 307 312 315 319 323 326 327 328 328
314 312 313 313 311 315 315 315 315 316 317 318 316 315 314 313 312 313 313 314 313 312 309 305 304 303 304 304 305 308 309 309 306 304 303 304 305 314 318 321 324 325 326 327
313 313 310 308 313 312 312 314 315 317 317 315 316 316 314 314 313 315 314 312 311 307 305 303 303 302 301 301 301 302 302 304 304 304 304 304 306 308 313 320 322 324 325 326
313 311 312 308 311 309 310 311 311 314 316 316 317 316 315 315 315 315 312 307 306 304 303 302 301 299 298 298 299 296 296 299 303 304 304 304 304 307 310 317 321 323 323 323
312 309 312 303 308 314 308 309 309 310 312 313 314 314 315 315 313 306 303 303 303 301 300 299 297 296 295 296 294 293 295 298 300 301 301 302 303 303 306 310 314 319 320 320
311 311 313 311 306 306 308 308 309 311 311 311 312 314 314 308 307 304 302 301 300 299 298 296 294 293 294 293 290 291 294 295 294 293 294 297 300 301 302 305 310 309 314 316
308 310 311 312 309 306 308 307 306 310 312 309 311 310 308 307 310 306 300 298 297 296 295 293 291 290 290 290 288 289 292 291 290 290 291 294 296 299 301 301 303 309 308 310
312 312 313 312 304 305 306 307 308 308 308 306 305 305 305 306 302 299 297 295 295 293 292 290 288 288 288 288 286 287 287 287 287 288 290 293 294 296 297 300 301 302 304 304
311 312 312 312 312 310 304 306 308 305 303 302 302 300 299 297 296 296 294 293 292 290 290 288 286 286 286 286 284 285 286 285 286 287 289 290 292 294 296 297 298 299 301 303
308 308 308 308 307 302 301 302 299 300 299 299 298 294 293 294 294 293 291 290 289 289 288 286 285 284 284 284 284 284 284 284 285 287 288 290 290 292 295 296 296 298 298 300
303 302 303 304 303 301 299 296 295 295 294 292 291 291 290 291 290 289 289 288 286 286 286 284 283 283 283 282 282 282 283 283 285 285 287 289 290 291 292 295 296 297 298 298
300 301 300 301 302 299 297 295 291 290 289 288 287 287 287 287 287 287 286 285 284 284 283 282 282 281 280 279 279 280 280 281 280 283 287 289 291 291 291 292 293 296 297 297
299 300 301 301 299 299 296 291 290 289 288 286 286 285 284 284 284 283 282 282 282 281 280 280 278 277 277 277 277 278 278 278 278 280 284 287 289 290 291 292 292 292 293 296
Wind_Speed
11 6 14 14 14 11 10 12 12 9 14 1 7 11 11 9 11 13 11 12 11 13 16 25 23 23 23 23 25 30 32 34 34 33 31 32 35 36 37 39 40 35 35 37
6 16 13 12 14 14 13 12 13 11 5 1 8 19 17 18 18 18 15 13 12 10 10 16 21 21 26 29 30 31 35 37 38 35 37 34 31 33 38 38 39 39 35 37
14 5 16 14 15 16 16 14 9 10 12 6 8 18 16 19 21 20 17 17 17 19 14 11 15 20 19 30 33 36 36 36 41 40 34 30 27 26 29 35 38 42 41 40
13 19 8 17 14 11 12 8 12 14 5 4 4 8 14 13 13 10 11 10 12 14 18 18 14 20 26 22 32 35 38 38 38 40 37 37 36 32 39 37 36 38 46 44
8 11 13 14 17 10 8 6 8 8 5 9 11 8 6 5 9 11 8 10 10 11 9 8 9 14 13 20 26 28 37 39 40 40 41 38 37 37 32 29 32 38 40 45
16 6 11 12 8 9 5 4 3 3 2 6 7 9 7 7 8 2 7 7 4 3 4 3 9 13 14 15 16 24 29 35 40 41 42 41 38 38 32 33 33 34 37 41
13 20 4 3 16 13 9 7 2 4 4 7 6 8 18 8 12 8 9 7 6 7 5 6 9 11 15 18 19 19 25 29 36 41 41 43 42 40 38 34 35 32 32 35
11 8 19 9 9 8 13 9 4 6 5 2 9 9 8 6 11 7 4 4 6 7 7 8 6 5 10 15 17 18 20 28 30 35 38 40 42 40 37 37 34 35 35 38
15 12 5 13 6 9 10 14 13 5 3 1 4 7 10 14 7 9 8 5 7 6 5 4 3 5 9 15 15 15 17 20 26 31 34 36 40 40 39 37 37 36 35 36
4 5 9 11 10 13 8 6 4 4 5 4 6 6 10 5 11 11 8 8 8 6 6 6 5 8 16 15 17 17 16 19 25 31 34 34 35 39 38 37 36 36 35 35
4 4 7 13 13 13 12 7 6 6 5 4 2 5 7 13 2 5 8 8 7 1 5 5 4 9 14 20 18 19 21 20 19 24 33 33 34 34 36 35 36 35 35 33
16 1 3 13 3 9 16 18 12 4 5 4 2 8 6 6 8 8 7 5 2 4 6 7 8 15 17 17 21 23 24 21 22 21 22 28 32 31 32 35 36 34 35 32
14 4 3 1 3 2 9 18 19 15 6 7 5 10 5 5 5 8 6 3 4 5 7 7 7 8 16 23 24 24 24 23 23 24 23 24 27 28 31 31 32 34 38 36
15 4 8 12 2 7 7 9 15 14 12 21 15 26 20 11 11 13 8 6 4 4 6 6 7 7 18 22 25 23 25 24 23 23 22 23 24 28 30 30 31 32 35 28
9 8 14 14 9 3 4 4 8 13 22 12 24 22 34 6 9 7 11 4 4 7 9 10 11 11 18 22 25 26 28 25 23 23 18 22 24 24 27 29 30 29 32 28
8 3 2 6 10 9 2 8 15 18 18 17 23 22 29 7 9 14 7 8 9 8 8 10 11 14 19 23 26 27 27 29 27 22 19 16 19 20 25 24 25 28 28 25
16 7 4 6 7 2 7 27 18 19 15 15 12 24 20 19 11 5 4 5 6 7 8 10 12 14 21 26 25 29 31 30 27 21 18 17 15 16 19 22 23 25 26 24
14 7 2 2 3 9 10 5 16 22 20 18 19 23 11 6 2 10 7 6 7 7 8 9 13 20 24 25 27 30 30 26 24 22 23 21 17 16 12 14 24 25 25 23
10 7 4 4 5 7 12 5 6 7 13 19 22 24 9 5 6 6 7 7 6 6 7 11 16 20 22 23 29 28 25 23 24 26 28 27 22 19 17 12 15 23 21 21
2 13 8 5 5 8 3 4 8 6 9 5 4 2 7 5 4 3 5 5 6 8 11 13 18 19 19 22 28 23 21 22 24 27 26 25 24 19 18 14 12 16 18 16
6 7 15 10 4 7 5 5 1 6 4 4 6 6 4 4 3 2 4 5 9 11 14 16 16 16 20 24 24 21 21 23 26 27 26 25 22 21 18 15 12 13 12 12
11 9 6 5 7 14 7 3 10 4 3 5 4 3 5 4 5 5 5 6 6 8 12 15 16 18 19 19 19 20 20 26 28 28 23 22 23 22 20 16 10 11 12 11
7 7 6 10 7 2 3 3 2 2 5 3 5 5 5 3 3 5 5 6 6 9 9 9 13 15 17 19 19 18 22 28 31 28 24 22 22 20 17 14 14 10 11 11
3 2 4 4 5 5 5 5 4 3 6 6 6 5 3 1 4 5 6 5 5 8 10 12 12 14 17 21 22 21 24 28 28 26 25 22 22 23 19 13 10 10 11 11
4 8 5 1 2 2 2 4 7 6 7 7 5 3 3 2 3 4 5 6 9 12 13 15 13 13 16 22 24 24 23 28 26 24 23 20 22 20 18 12 12 11 9 10
4 5 5 4 3 4 1 7 9 7 5 6 4 3 3 3 3 4 5 8 11 13 16 16 16 18 20 22 24 25 24 27 26 22 20 19 19 20 17 12 8 8 6 7
Wind_Direction
197 200 206 203 223 238 255 231 240 241 236 287 266 267 272 277 271 272 264 263 247 253 261 266 259 231 225 228 219 212 211 217 209 209 210 207 205 204 207 214 215 212 215 216
176 227 208 216 218 227 249 261 271 271 287 149 282 277 270 261 259 258 262 268 267 260 255 261 260 243 220 219 219 216 212 211 211 208 212 216 212 208 210 212 218 211 214 217
216 243 212 227 221 224 226 230 261 296 303 322 317 290 256 250 249 248 254 254 256 255 259 262 259 263 257 220 217 217 217 213 209 209 212 216 219 219 215 217 218 218 211 215
232 231 232 222 233 221 237 215 243 257 295 275 314 288 289 297 282 255 244 243 241 241 240 243 246 248 250 248 226 220 216 216 216 209 206 207 207 209 218 218 218 216 219 213
209 202 200 206 219 230 243 226 258 248 272 282 251 271 278 262 298 278 252 226 233 240 234 232 237 251 258 243 243 232 223 218 217 213 210 212 215 219 223 217 215 217 218 218
235 200 208 219 191 213 191 230 192 284 38 250 211 226 246 228 248 87 13 326 303 343 244 48 3 348 335 317 278 249 231 221 218 217 214 215 216 222 221 215 213 212 213 212
206 228 265 214 205 194 196 146 156 214 209 237 199 193 244 300 296 277 300 299 23 17 16 35 39 14 343 321 302 276 247 238 222 217 215 218 222 221 225 222 213 213 212 212
202 206 199 183 207 181 189 180 181 203 190 267 200 225 246 213 250 250 252 289 22 52 64 63 43 346 313 315 317 298 281 252 237 224 221 222 225 227 227 228 222 221 217 217
195 228 169 178 163 197 188 211 220 332 112 174 232 285 299 281 233 247 264 261 112 90 75 76 311 274 292 309 312 315 290 274 254 242 235 227 224 227 231 233 232 225 223 222
171 219 225 174 156 230 218 136 167 204 203 230 256 268 246 304 232 223 252 167 92 40 26 336 311 321 321 302 306 315 311 286 268 256 247 240 228 225 230 235 238 233 229 226
221 304 172 150 201 188 205 179 241 168 205 196 274 249 214 226 322 132 82 76 80 8 284 284 310 310 325 326 306 309 309 304 288 269 256 249 238 231 226 232 238 240 236 233
214 264 166 201 178 211 218 221 202 192 178 233 3 262 295 346 67 93 90 121 176 299 321 343 330 334 327 322 322 318 312 307 308 298 270 257 249 236 230 229 234 239 241 235
184 190 144 314 264 271 228 223 225 240 278 209 163 253 199 7 191 153 151 86 39 354 330 321 330 337 334 328 323 320 316 309 308 309 290 273 257 247 238 236 234 234 237 235
169 150 209 212 131 141 204 208 226 231 229 241 242 264 256 293 303 319 342 26 3 346 345 342 356 342 336 331 325 325 324 320 314 312 296 281 270 260 250 244 239 235 235 235
166 225 217 241 254 113 165 186 226 235 237 228 244 246 265 226 251 291 335 330 16 28 25 1 349 340 334 331 330 330 327 325 325 319 302 286 276 269 261 249 244 241 242 227
164 207 152 246 242 259 213 219 228 235 250 256 265 268 258 313 331 299 316 21 35 18 9 348 340 338 336 334 330 328 332 328 328 324 314 308 293 280 270 262 247 231 232 237
189 149 137 245 191 94 294 241 230 231 222 201 226 245 266 260 259 271 62 54 43 21 357 346 340 336 334 332 338 332 327 331 335 333 335 331 318 303 285 275 257 247 232 226
192 151 118 205 87 204 241 179 221 225 235 232 240 251 247 235 115 100 69 57 39 8 354 348 341 335 333 335 336 330 331 339 350 357 354 350 338 317 298 292 284 260 250 238
194 159 177 203 199 288 292 189 157 180 245 227 233 248 238 120 98 76 54 45 37 16 358 350 342 333 331 338 335 333 336 351 360 360 352 347 344 336 323 308 295 283 260 249
309 191 193 173 197 216 270 313 168 114 266 174 212 211 140 120 160 151 25 35 28 17 7 351 340 333 337 339 342 339 346 354 356 348 344 346 341 338 327 315 295 268 273 262
188 188 201 206 227 275 187 166 62 153 224 88 96 81 84 105 102 78 23 21 13 8 357 348 345 335 337 341 347 346 348 352 342 337 338 343 346 342 334 319 302 280 253 237
183 189 199 197 213 252 155 110 166 176 57 111 100 83 93 66 359 2 16 360 356 353 346 345 337 330 336 345 349 346 345 341 341 340 336 338 343 345 344 331 309 277 241 212
198 197 183 182 213 127 48 89 70 119 135 125 108 98 88 76 354 341 337 344 340 334 340 337 331 322 333 346 350 339 336 342 345 345 339 339 341 344 345 333 317 299 278 251
251 192 174 102 210 180 146 101 94 67 107 103 88 99 84 54 1 315 323 320 318 341 340 340 333 333 329 339 342 339 338 342 345 341 338 339 343 341 343 336 322 303 288 271
194 141 157 265 139 85 180 153 141 108 100 104 100 102 94 38 316 321 315 320 331 332 339 336 334 329 323 332 335 340 336 339 337 336 341 333 341 341 339 345 357 327 298 285
195 167 164 213 175 157 88 120 120 124 129 107 108 119 70 36 336 335 311 322 323 332 330 334 332 330 325 326 330 337 337 337 335 327 329 331 328 331 332 322 320 15 346 307